This demonstration page uses our WeatherBlox Daily Observations layout. Learn more.

Left ArrowRight Arrow

Hourly Observations for July 16, 2018

Temp ( °F °C ) Dew Point ( °F °C ) Humidity (%) Winds ( mph kmh ) Pressure ( in mb ) Visibility ( mi km ) Precip ( " mm )
12:53 am 00:53 Clear 84 28.9 62 16.7 48 48 NNW 5 7 29.85 1011 10 16 0.00 0.00
1:53 am 01:53 Clear 82 27.8 64 17.8 55 55 Calm 29.87 1011 10 16 0.00 0.00
2:53 am 02:53 Clear 81 27.2 64 17.8 57 57 Calm 29.87 1012 10 16 0.00 0.00
3:53 am 03:53 Clear 78 25.6 63 17.2 60 60 N 3 6 29.88 1012 10 16 0.00 0.00
4:53 am 04:53 Clear 77 25 63 17.2 62 62 Calm 29.89 1012 10 16 0.00 0.00
5:53 am 05:53 Sunny 77 25 62 16.7 60 60 NNW 3 6 29.90 1012 10 16 0.00 0.00
6:53 am 06:53 Sunny 78 25.6 62 16.7 58 58 Calm 29.91 1013 10 16 0.00 0.00
7:53 am 07:53 Sunny 82 27.8 60 15.6 47 47 VRB 3 6 29.91 1013 10 16 0.00 0.00
8:53 am 08:53 Sunny 87 30.6 58 14.4 37 37 NW 5 7 29.90 1013 10 16 0.00 0.00
9:53 am 09:53 Sunny 91 32.8 58 14.4 33 33 Calm 29.89 1012 10 16 0.00 0.00
10:53 am 10:53 Sunny 96 35.6 57 13.9 27 27 Calm 29.88 1012 10 16 0.00 0.00
11:53 am 11:53 Sunny 98 36.7 57 13.9 25 25 SSE 5 7 29.87 1011 10 16 0.00 0.00
12:53 pm 12:53 Sunny 101 38.3 56 13.3 22 22 VRB 5 7 29.86 1011 10 16 0.00 0.00
1:53 pm 13:53 Sunny 104 40 53 11.7 18 18 VRB 6 9 29.84 1011 10 16 0.00 0.00
2:53 pm 14:53 Sunny 106 41.1 49 9.4 15 15 S 9 15 29.82 1010 10 16 0.00 0.00
3:53 pm 15:53 Sunny 107 41.7 48 8.9 14 14 S 9 15 29.81 1009 10 16 0.00 0.00
4:53 pm 16:53 Sunny 107 41.7 44 6.7 12 12 S 9 15 29.80 1009 10 16 0.00 0.00
5:53 pm 17:53 Sunny 107 41.7 43 6.1 11 11 S 13 20 29.79 1009 10 16 0.00 0.00
6:53 pm 18:53 Sunny 104 40 46 7.8 14 14 SSE 14 22 29.78 1009 10 16 0.00 0.00
7:53 pm 19:53 Sunny 100 37.8 52 11.1 20 20 SSE 9 15 29.79 1009 10 16 0.00 0.00
8:53 pm 20:53 Clear 93 33.9 58 14.4 31 31 SSE 8 13 29.80 1009 10 16 0.00 0.00
9:53 pm 21:53 Clear 90 32.2 60 15.6 37 37 Calm 29.83 1010 10 16 0.00 0.00
10:53 pm 22:53 Clear 84 28.9 60 15.6 44 44 Calm 29.85 1011 10 16 0.00 0.00
11:53 pm 23:53 Clear 85 29.4 60 15.6 43 43 N 7 11 29.85 1011 10 16 0.00 0.00

Powered by AerisWeather